Le Raizet Airport, Guadeloupe

10:22 AM AST on June 22, 2018 (GMT -0400)
Le Raizet

Weather History for TFFR - September, 2017

Change the Weather History Date:

Thursday, September 7, 2017

  Actual Average Record
Temperature  
Mean Temperature 82 °F -  
Max Temperature 88 °F 87 °F 89 °F (1997)
Min Temperature 77 °F 74 °F 71 °F (2013)
Cooling Degree Days 18    
Growing Degree Days 32 (Base 50)    
Moisture  
Dew Point 77 °F    
Average Humidity 84    
Maximum Humidity 100    
Minimum Humidity 63    
Precipitation  
Precipitation 0.24 in 0.31 in - ()
Sea Level Pressure  
Sea Level Pressure 29.91 in    
Wind  
Wind Speed 9 mph ()    
Max Wind Speed 17 mph    
Max Gust Speed -    
Visibility 6.8 miles    
Events Rain    
Averages and records for this station are not official NWS values.
T = Trace of Precipitation, MM = Missing Value Source: Averaged Metar Reports

Daily Weather History Graph

Daily Weather History Graph

Search for Another Location

Airport or City:

Astronomy

Sep. 07, 2017 Rise Set
Actual Time 5:53 AM AST 6:14 PM AST
Civil Twilight 5:31 AM AST 6:35 PM AST
Nautical Twilight 5:06 AM AST 7:01 PM AST
Astronomical Twilight 4:41 AM AST 7:26 PM AST
Moon 7:28 PM AST (9/7) 6:57 AM AST (9/7)
Length of Visible Light 13h 03m
Length of Day
12h 20m
Full, 98% of the Moon is Illuminated
Sep 7
Full
Sep 13
Last Quarter
Sep 20
New
Sep 27
First Quarter
Oct 5
Full

Hourly Weather History & Observations

Time (AST) Temp. Heat Index Dew Point Humidity Pressure Visibility Wind Dir Wind Speed Gust Speed Precip Events Conditions
12:00 AM 82.4 °F 90.9 °F 77.0 °F 84% 29.92 in 6.2 mi SE 10.4 mph - N/A   Partly Cloudy
12:30 AM 82.4 °F 90.9 °F 77.0 °F 84% 29.92 in 6.2 mi SSE 8.1 mph - N/A   Partly Cloudy
1:00 AM 82.4 °F 90.9 °F 77.0 °F 84% 29.92 in 6.2 mi SSE 10.4 mph - N/A   Partly Cloudy
1:30 AM 82.4 °F 90.9 °F 77.0 °F 84% 29.92 in 6.2 mi SSE 9.2 mph - N/A   Scattered Clouds
2:00 AM 82 °F - 78 °F 83% 29.90 in 28 mi SE 8.1 mph - -   Clear
2:00 AM 82.4 °F 90.9 °F 77.0 °F 84% 29.89 in 6.2 mi SE 8.1 mph - N/A   Mostly Cloudy
2:30 AM 82.4 °F 90.9 °F 77.0 °F 84% 29.89 in 6.2 mi SE 13.8 mph - N/A   Mostly Cloudy
3:00 AM 80.6 °F 87.1 °F 77.0 °F 89% 29.89 in 6.2 mi SE 12.7 mph - N/A   Partly Cloudy
3:30 AM 80.6 °F 87.1 °F 77.0 °F 89% 29.86 in - SE 11.5 mph - N/A   Clear
4:00 AM 80.6 °F 87.1 °F 77.0 °F 89% 29.86 in - SE 10.4 mph - N/A   Clear
4:30 AM 80.6 °F 87.1 °F 77.0 °F 89% 29.89 in - SE 10.4 mph - N/A   Clear
5:00 AM 81 °F - 77 °F 84% 29.90 in 17 mi SE 9.2 mph - -   Clear
5:00 AM 80.6 °F 87.1 °F 77.0 °F 89% 29.89 in 6.2 mi SE 9.2 mph - N/A   Partly Cloudy
5:30 AM 82.4 °F 90.9 °F 77.0 °F 84% 29.89 in 6.2 mi SE 9.2 mph - N/A   Mostly Cloudy
6:00 AM 82.4 °F 90.9 °F 77.0 °F 84% 29.89 in 6.2 mi SE 11.5 mph - N/A   Mostly Cloudy
6:30 AM 82.4 °F 90.9 °F 77.0 °F 84% 29.89 in 6.2 mi SSE 8.1 mph - N/A   Mostly Cloudy
7:00 AM 82.4 °F 90.9 °F 77.0 °F 84% 29.89 in 6.2 mi SE 11.5 mph - N/A   Mostly Cloudy
7:30 AM 82.4 °F 90.9 °F 77.0 °F 84% 29.92 in 6.2 mi SE 13.8 mph - N/A   Mostly Cloudy
8:00 AM 85 °F - 78 °F 75% 29.93 in 22 mi SE 11.5 mph - -   Clear
8:00 AM 84.2 °F 96.1 °F 78.8 °F 84% 29.92 in 6.2 mi SE 11.5 mph - N/A   Mostly Cloudy
8:30 AM 86.0 °F 96.9 °F 77.0 °F 74% 29.92 in 6.2 mi SE 17.3 mph - N/A   Mostly Cloudy
9:00 AM 86.0 °F 96.9 °F 77.0 °F 74% 29.95 in 6.2 mi SE 16.1 mph - N/A   Mostly Cloudy
9:30 AM 86.0 °F 96.9 °F 77.0 °F 74% 29.95 in 6.2 mi SE 17.3 mph - N/A   Mostly Cloudy
10:00 AM 86.0 °F 96.9 °F 77.0 °F 74% 29.95 in 6.2 mi SE 16.1 mph - N/A   Mostly Cloudy
10:30 AM 86.0 °F 96.9 °F 77.0 °F 74% 29.95 in 6.2 mi SE 16.1 mph - N/A   Overcast
11:00 AM 87 °F - 76 °F 63% 29.96 in 28 mi ESE 15.0 mph - -   Clear
11:00 AM 87.8 °F 99.7 °F 77.0 °F 70% 29.95 in 6.2 mi ESE 15.0 mph - N/A   Mostly Cloudy
11:30 AM 87.8 °F 97.6 °F 75.2 °F 66% 29.95 in 6.2 mi SE 15.0 mph - N/A   Mostly Cloudy
12:00 PM 87.8 °F 99.7 °F 77.0 °F 70% 29.92 in 6.2 mi ESE 16.1 mph - N/A   Mostly Cloudy
12:30 PM 87.8 °F 97.6 °F 75.2 °F 66% 29.92 in 6.2 mi ESE 15.0 mph - N/A   Mostly Cloudy
1:00 PM 87.8 °F 99.7 °F 77.0 °F 70% 29.92 in 6.2 mi ESE 15.0 mph - N/A   Mostly Cloudy
1:30 PM 86.0 °F 96.9 °F 77.0 °F 74% 29.89 in 6.2 mi ESE 15.0 mph - N/A   Mostly Cloudy
2:00 PM 85 °F - 74 °F 64% 29.91 in 34 mi ESE 16.1 mph - -   Clear
2:00 PM 84.2 °F 92.3 °F 75.2 °F 74% 29.89 in 6.2 mi ESE 16.1 mph - N/A   Scattered Clouds
2:30 PM 86.0 °F 96.9 °F 77.0 °F 74% 29.89 in 6.2 mi East 15.0 mph - N/A   Unknown
3:00 PM 86.0 °F 96.9 °F 77.0 °F 74% 29.89 in 6.2 mi SSE 11.5 mph - N/A   Mostly Cloudy
3:30 PM 80.6 °F 86.2 °F 75.2 °F 84% 29.89 in 6.2 mi SE 17.3 mph - N/A Rain Light Rain
4:00 PM 77.0 °F - 75.2 °F 94% 29.89 in 6.2 mi South 8.1 mph - N/A   Mostly Cloudy
4:30 PM 78.8 °F - 77.0 °F 94% 29.89 in 4.3 mi Variable 3.5 mph - N/A Rain Light Rain
5:00 PM 79 °F - 77 °F 91% 29.91 in 17 mi WSW 3.5 mph - -   Clear
5:00 PM 78.8 °F - 77.0 °F 94% 29.89 in 6.2 mi Variable 3.5 mph - N/A   Mostly Cloudy
5:30 PM 78.8 °F - 77.0 °F 94% 29.89 in 6.2 mi SE 9.2 mph - N/A Rain Light Rain
6:00 PM 77.0 °F - 75.2 °F 94% 29.89 in 6.2 mi ESE 4.6 mph - N/A   Mostly Cloudy
6:30 PM 77.0 °F - 75.2 °F 94% 29.89 in 6.2 mi Variable 2.3 mph - N/A   Unknown
7:00 PM 77.0 °F - 75.2 °F 94% 29.89 in - ESE 4.6 mph - N/A   Clear
7:30 PM 77.0 °F - 75.2 °F 94% 29.89 in - SE 4.6 mph - N/A   Clear
8:00 PM 77 °F - 76 °F 95% 29.92 in 11 mi ESE 3.5 mph - -   Clear
8:00 PM 77.0 °F - 75.2 °F 94% 29.92 in - ESE 3.5 mph - N/A   Clear
8:30 PM 77.0 °F - 75.2 °F 94% 29.92 in 6.2 mi Variable 2.3 mph - N/A   Mostly Cloudy
9:00 PM 77.0 °F - 77.0 °F 100% 29.95 in 6.2 mi Calm Calm - N/A   Mostly Cloudy
9:30 PM 77.0 °F - 75.2 °F 94% 29.92 in - Calm Calm - N/A   Clear
10:00 PM 77.0 °F - 75.2 °F 94% 29.92 in 6.2 mi Calm Calm - N/A   Unknown
10:30 PM 77.0 °F - 77.0 °F 100% 29.92 in - NW 2.3 mph - N/A   Clear
11:00 PM 77 °F - 76 °F 96% 29.94 in 7 mi SSE 2.3 mph - -   Clear
11:00 PM 77.0 °F - 77.0 °F 100% 29.92 in - SSE 2.3 mph - N/A   Clear
11:30 PM 77.0 °F - 77.0 °F 100% 29.92 in - Variable 2.3 mph - N/A   Clear